This is the latest recevied weather packets stored in our database for station/object KD7AWQ. If no packets are shown the sender has not sent any weather packets the latest 10 day(s).
| Time | Temp. | Humidity | Pressure | Rain* | Wind** | Luminosity | Snow |
|---|---|---|---|---|---|---|---|
| 1778053227 | 10.56° C | 54% | 1183.5 hPa | 0 mm | - | 0 W/m² | - |
| 1778052925 | 11.11° C | 55% | 1183.9 hPa | 0 mm | - | 0 W/m² | - |
| 1778052622 | 11.11° C | 53% | 1183.7 hPa | 0 mm | - | 0 W/m² | - |
| 1778052319 | 10.56° C | 54% | 1183.7 hPa | 0 mm | - | 0 W/m² | - |
| 1778052016 | 11.67° C | 52% | 1183.6 hPa | 0 mm | - | 0 W/m² | - |
| 1778051714 | 11.11° C | 52% | 1183.7 hPa | 0 mm | - | 0 W/m² | - |
| 1778051411 | 11.11° C | 51% | 1183.5 hPa | 0 mm | - | 0 W/m² | - |
| 1778051109 | 11.11° C | 52% | 1183.6 hPa | 0 mm | - | 0 W/m² | - |
| 1778050805 | 11.67° C | 50% | 1183.6 hPa | 0 mm | - | 0 W/m² | - |
| 1778050503 | 11.67° C | 51% | 1183.2 hPa | 0 mm | - | 0 W/m² | - |
| 1778050200 | 11.67° C | 52% | 1183.5 hPa | 0 mm | - | 0 W/m² | - |
| 1778049896 | 12.22° C | 48% | 1183.6 hPa | 0 mm | - | 0 W/m² | - |
| 1778049592 | 12.22° C | 47% | 1183.6 hPa | 0 mm | - | 0 W/m² | - |
| 1778049290 | 11.67° C | 52% | 1183.1 hPa | 0 mm | - | 0 W/m² | - |
| 1778048987 | 11.67° C | 52% | 1183.2 hPa | 0 mm | - | 0 W/m² | - |
| 1778048686 | 11.67° C | 51% | 1183.2 hPa | 0 mm | - | 0 W/m² | - |
| 1778048382 | 11.67° C | 51% | 1183.1 hPa | 0 mm | - | 0 W/m² | - |
| 1778048078 | 11.67° C | 52% | 1183.2 hPa | 0 mm | - | 0 W/m² | - |
| 1778047776 | 11.67° C | 51% | 1183.1 hPa | 0 mm | - | 0 W/m² | - |
| 1778047475 | 11.67° C | 51% | 1183.2 hPa | 0 mm | - | 0 W/m² | - |
| 1778047171 | 11.67° C | 50% | 1183.1 hPa | 0 mm | - | 0 W/m² | - |
| 1778046868 | 12.22° C | 50% | 1183.1 hPa | 0 mm | - | 0 W/m² | - |
| 1778046564 | 12.22° C | 50% | 1183 hPa | 0 mm | - | 0 W/m² | - |
| 1778046262 | 12.22° C | 48% | 1183 hPa | 0 mm | - | 0 W/m² | - |
| 1778045957 | 12.78° C | 48% | 1183 hPa | 0 mm | - | 0 W/m² | - |
* Rain latest hour (hover to see other rain measurements)
** Current wind speed in m/s (hover to see current wind gust speed)